Stations météo

réclame
Mon MeteoGroup
Bierset/Liege, Belgique (6478): Température de l'air & dewpoint: 06.11.2019 05:00:00 - 12.11.2019 05:00:00 (CET)Bierset/Liege, Belgique (6478): Vitesse du vent & gusts: 06.11.2019 05:00:00 - 12.11.2019 05:00:00 (CET)Bierset/Liege, Belgique (6478): Direction du vent: 06.11.2019 05:00:00 - 12.11.2019 05:00:00 (CET)Bierset/Liege, Belgique (6478): reduced air pressure: 06.11.2019 05:00:00 - 12.11.2019 05:00:00 (CET)Bierset/Liege, Belgique (6478): visibility: 06.11.2019 05:00:00 - 12.11.2019 05:00:00 (CET)
Date & Time tt [°C] td [°C] ff [km/h] ff [knt] fx [km/h] fx [knt] dd ppp [hPa] vv [km]
12.11.2019 05:00:00 4,5 2,5 24 13 47 25 SSW 1003,3 10
12.11.2019 04:00:00 4,4 2,0 24 13 - - SSW 1003,7 10
12.11.2019 03:00:00 3,9 2,2 22 12 32 18 SSW 1004,2 10
12.11.2019 02:00:00 3,9 2,3 22 12 40 21 SSW 1004,2 10
12.11.2019 01:00:00 3,8 2,0 22 12 - - SSW 1004,4 10
12.11.2019 00:00:00 3,9 2,4 22 12 36 19 SSW 1004,4 10
11.11.2019 23:00:00 4,3 2,9 21 11 29 16 SSW 1004,3 10
11.11.2019 22:00:00 4,9 3,6 16 9 - - SSW 1004,1 10
11.11.2019 21:00:00 4,7 3,5 16 9 25 14 SSW 1004,0 10
11.11.2019 20:00:00 4,6 3,3 16 9 29 16 SSW 1003,6 10
11.11.2019 19:00:00 4,8 3,6 15 8 - - SSW 1003,3 10
11.11.2019 18:00:00 4,8 3,4 22 12 36 19 SSW 1002,9 10
11.11.2019 17:00:00 4,7 3,3 26 14 43 23 SSW 1002,7 10
11.11.2019 16:00:00 5,2 3,4 31 17 - - SSW 1002,6 8
11.11.2019 15:00:00 6,1 4,4 26 14 43 23 SSW 1002,5 6
11.11.2019 14:00:00 6,9 3,2 29 16 50 27 SSW 1003,0 10
11.11.2019 13:00:00 6,9 2,6 35 19 - - S 1003,8 10
11.11.2019 12:00:00 6,7 2,4 34 18 47 25 S 1005,2 10
11.11.2019 11:00:00 6,8 2,8 35 19 50 27 S 1005,8 10
11.11.2019 10:00:00 5,6 2,4 18 10 - - S 1006,8 10
11.11.2019 09:00:00 4,9 2,3 21 11 36 19 S 1008,1 10
11.11.2019 08:00:00 4,4 2,1 15 8 32 18 S 1008,7 10
11.11.2019 07:00:00 4,8 2,4 16 9 - - S 1009,2 10
11.11.2019 06:00:00 4,8 2,7 18 10 32 18 SSE 1010,4 10
11.11.2019 05:00:00 5,0 2,8 16 9 32 18 S 1011,9 10
11.11.2019 04:00:00 4,6 2,5 13 7 - - S 1012,7 10
11.11.2019 03:00:00 4,0 2,2 15 8 22 12 S 1013,1 10
11.11.2019 02:00:00 3,8 2,0 13 7 29 16 S 1014,5 10
11.11.2019 01:00:00 3,0 1,2 15 8 - - S 1014,7 10
11.11.2019 00:00:00 2,7 1,2 15 8 36 19 SSE 1014,6 10
10.11.2019 23:00:00 2,8 1,2 13 7 25 14 SSE 1015,0 10
10.11.2019 22:00:00 3,1 1,3 13 7 - - SSE 1015,1 10
10.11.2019 21:00:00 4,1 1,7 15 8 29 16 SSE 1015,3 10
10.11.2019 20:00:00 5,9 1,8 9 5 18 10 SSE 1015,6 10
10.11.2019 19:00:00 6,2 2,1 8 4 - - E 1015,1 10
10.11.2019 18:00:00 6,7 3,0 5 3 7 4 E 1015,1 10
10.11.2019 17:00:00 6,4 3,0 5 3 11 6 NNE 1014,5 10
10.11.2019 16:00:00 8,2 3,7 9 5 - - N 1013,7 10
10.11.2019 15:00:00 9,7 2,7 2 1 18 10 - 1012,9 10
10.11.2019 14:00:00 10,3 2,8 4 2 14 8 - 1012,6 10
10.11.2019 13:00:00 8,8 2,7 5 3 - - ESE 1012,6 10
10.11.2019 12:00:00 7,3 2,3 9 5 36 19 ESE 1012,6 10
10.11.2019 11:00:00 6,0 2,3 11 6 36 19 SE 1012,3 12
10.11.2019 10:00:00 4,0 1,5 9 5 - - SE 1012,1 10
10.11.2019 09:00:00 2,7 0,8 13 7 32 18 ESE 1011,5 10
10.11.2019 08:00:00 1,9 0,5 15 8 32 18 SE 1010,9 10
10.11.2019 07:00:00 2,4 0,7 13 7 - - SE 1009,9 10
10.11.2019 06:00:00 2,5 0,7 15 8 22 12 SE 1009,4 10
10.11.2019 05:00:00 2,6 0,7 15 8 22 12 SE 1008,9 10
10.11.2019 04:00:00 1,9 0,3 15 8 - - SE 1008,6 10
10.11.2019 03:00:00 2,2 0,4 11 6 18 10 ESE 1008,6 10
10.11.2019 02:00:00 2,0 0,3 9 5 11 6 SE 1008,5 10
10.11.2019 01:00:00 2,1 0,4 11 6 - - SE 1008,2 10
10.11.2019 00:00:00 2,7 0,7 9 5 18 10 SE 1008,1 10
09.11.2019 23:00:00 2,4 1,0 11 6 32 18 SSE 1008,1 10
09.11.2019 22:00:00 3,5 1,3 15 8 - - SSE 1007,9 10
09.11.2019 21:00:00 3,4 1,4 15 8 22 12 S 1008,4 10
09.11.2019 20:00:00 3,7 1,6 11 6 18 10 S 1008,4 10
09.11.2019 19:00:00 4,0 1,7 11 6 - - S 1008,4 10
09.11.2019 18:00:00 4,5 2,0 13 7 22 12 S 1008,4 10
09.11.2019 17:00:00 5,2 2,0 16 9 25 14 S 1008,3 10
09.11.2019 16:00:00 6,1 1,8 16 9 - - SSW 1008,4 10
09.11.2019 15:00:00 6,4 2,5 16 9 32 18 SW 1008,6 10
09.11.2019 14:00:00 6,4 2,5 21 11 32 18 SSW 1009,0 10
09.11.2019 13:00:00 6,0 3,5 18 10 - - SW 1009,3 10
09.11.2019 12:00:00 5,6 4,1 22 12 29 16 SW 1009,7 10
09.11.2019 11:00:00 5,2 4,0 22 12 32 18 SW 1010,0 8
09.11.2019 10:00:00 5,0 3,4 22 12 - - SW 1009,9 8
09.11.2019 09:00:00 4,5 3,3 24 13 36 19 SW 1009,9 8
09.11.2019 08:00:00 4,3 3,3 21 11 29 16 SW 1010,0 7
09.11.2019 07:00:00 4,0 3,3 21 11 - - SW 1009,9 6
09.11.2019 06:00:00 3,9 3,4 16 9 29 16 WSW 1009,8 3,4
09.11.2019 05:00:00 3,6 2,9 18 10 25 14 SSW 1009,5 4,2
09.11.2019 04:00:00 3,1 2,4 16 9 - - SSW 1009,8 4,5
09.11.2019 03:00:00 3,1 2,5 15 8 22 12 SSW 1009,7 4,0
09.11.2019 02:00:00 3,1 2,5 15 8 25 14 SSW 1009,6 3,2
09.11.2019 01:00:00 3,7 3,0 13 7 - - SW 1009,5 6
09.11.2019 00:00:00 3,4 2,7 13 7 22 12 SW 1009,5 8
08.11.2019 23:00:00 2,3 1,8 13 7 14 8 SW 1009,8 5
08.11.2019 22:00:00 4,4 3,5 8 4 - - SW 1009,4 10
08.11.2019 21:00:00 3,9 3,1 5 3 11 6 WSW 1009,2 10
08.11.2019 20:00:00 3,6 2,8 8 4 11 6 WSW 1008,8 10
08.11.2019 19:00:00 4,4 3,6 5 3 - - W 1008,4 10
08.11.2019 18:00:00 5,5 4,2 4 2 7 4 W 1007,9 10
08.11.2019 17:00:00 7,4 4,5 4 2 11 6 NW 1007,2 10
08.11.2019 16:00:00 8,5 4,2 5 3 - - NNW 1006,8 10
08.11.2019 15:00:00 8,8 4,5 4 2 11 6 - 1006,2 10
08.11.2019 14:00:00 8,5 4,8 0 0 7 4 N 1006,1 30
08.11.2019 13:00:00 8,9 5,0 2 1 - - - 1006,0 10
08.11.2019 12:00:00 7,8 4,3 4 2 22 12 - 1006,1 10
08.11.2019 11:00:00 6,7 4,0 11 6 36 19 SSE 1006,5 10
08.11.2019 10:00:00 5,0 3,1 11 6 - - SSE 1006,0 10
08.11.2019 09:00:00 3,4 2,0 11 6 29 16 SSE 1006,0 10
08.11.2019 08:00:00 3,2 1,7 8 4 22 12 S 1005,4 10
08.11.2019 07:00:00 2,9 1,6 8 4 - - SSE 1005,0 10
08.11.2019 06:00:00 3,1 1,7 5 3 14 8 ESE 1004,6 10
08.11.2019 05:00:00 3,2 1,8 5 3 22 12 - 1004,4 10
08.11.2019 04:00:00 3,3 2,1 8 4 - - SE 1004,2 10
08.11.2019 03:00:00 4,0 2,4 16 9 25 14 SSE 1003,8 10
08.11.2019 02:00:00 4,8 2,5 16 9 32 18 S 1003,3 10
08.11.2019 01:00:00 4,8 2,7 18 10 - - S 1003,3 10
08.11.2019 00:00:00 4,8 2,9 15 8 25 14 SSE 1003,4 10
07.11.2019 23:00:00 5,0 3,2 13 7 32 18 S 1003,3 10
07.11.2019 22:00:00 5,6 3,3 18 10 - - S 1002,7 10
07.11.2019 21:00:00 5,6 3,7 16 9 32 18 SSW 1002,2 10
07.11.2019 20:00:00 5,5 4,2 15 8 25 14 SSW 1001,8 10
07.11.2019 19:00:00 5,5 3,8 16 9 - - SSW 1001,3 10
07.11.2019 18:00:00 5,8 4,0 29 16 50 27 WSW 1000,8 10
07.11.2019 17:00:00 6,7 5,1 22 12 29 16 SSW 999,5 10
07.11.2019 16:00:00 5,7 4,5 18 10 - - SW 998,8 10
07.11.2019 15:00:00 8,9 5,6 29 16 43 23 SW 996,9 10
07.11.2019 14:00:00 9,4 6,6 31 17 43 23 SW 996,1 10
07.11.2019 13:00:00 8,1 7,0 21 11 - - S 995,2 6
07.11.2019 12:00:00 8,6 6,0 24 13 43 23 S 995,0 10
07.11.2019 11:00:00 8,5 6,1 24 13 40 21 S 994,9 10
07.11.2019 10:00:00 8,4 6,2 13 7 - - SE 995,1 10
07.11.2019 09:00:00 8,0 6,0 15 8 36 19 SE 995,8 10
07.11.2019 08:00:00 7,5 6,1 11 6 25 14 SE 996,4 10
07.11.2019 07:00:00 7,8 6,5 9 5 - - SSE 997,2 10
07.11.2019 06:00:00 7,6 6,4 15 8 25 14 SSE 998,0 10
07.11.2019 05:00:00 7,6 6,3 11 6 32 18 SSE 998,5 10
07.11.2019 04:00:00 7,4 6,1 13 7 - - SSE 999,3 10
07.11.2019 03:00:00 7,4 6,4 11 6 22 12 SSE 1000,0 10
07.11.2019 02:00:00 7,6 6,3 13 7 25 14 S 1000,8 10
07.11.2019 01:00:00 7,5 6,5 11 6 - - S 1001,6 7
07.11.2019 00:00:00 7,7 6,9 9 5 25 14 S 1002,2 7
06.11.2019 23:00:00 7,6 6,6 11 6 18 10 S 1002,8 9
06.11.2019 22:00:00 7,4 6,5 8 4 - - S 1003,4 10
06.11.2019 21:00:00 7,6 6,7 13 7 18 10 SSW 1003,6 7
06.11.2019 20:00:00 7,9 7,1 8 4 22 12 S 1003,5 6
06.11.2019 19:00:00 8,1 7,2 8 4 - - SSE 1003,7 7
06.11.2019 18:00:00 7,9 7,2 2 1 7 4 - 1003,8 9
06.11.2019 17:00:00 8,3 7,5 2 1 4 2 W 1003,8 10
06.11.2019 16:00:00 8,6 7,6 4 2 - - NNW 1003,8 10
06.11.2019 15:00:00 8,5 7,0 4 2 11 6 - 1003,7 10
06.11.2019 14:00:00 8,3 7,3 5 3 11 6 WNW 1003,9 7
06.11.2019 13:00:00 8,2 7,2 8 4 - - NW 1003,8 6
06.11.2019 12:00:00 8,1 7,3 8 4 14 8 NW 1003,8 4,5
06.11.2019 11:00:00 8,0 7,5 8 4 14 8 NW 1003,6 2,0
06.11.2019 10:00:00 7,8 7,3 11 6 - - WSW 1003,3 2,5
06.11.2019 09:00:00 7,5 6,9 13 7 18 10 SW 1003,0 3,0
06.11.2019 08:00:00 7,4 6,8 15 8 18 10 SW 1002,4 2,2
06.11.2019 07:00:00 7,3 6,7 13 7 - - SW 1001,8 2,4
06.11.2019 06:00:00 7,0 6,4 11 6 25 14 SW 1001,7 2,4
06.11.2019 05:00:00 7,3 6,1 18 10 25 14 SSW 1001,4 9

tt = Température de l'air
td = dewpoint
ff = Vitesse du vent
fx = gusts
dd = Direction du vent
ppp = reduced air pressure
vv = visibility

stations d'obs. à proximité